Location: Earls Croome
(52.0667°N, 2.2000°W)
Time: 20:59:41
(UTC+00:00)

COSMOS 2455 - Pass Details

Date: 27 February 2020
Orbit: 901 x 909 km, 67.1° (Epoch: 09 April)

Event Time Altitude Azimuth Distance (km) Brightness Sun altitude
Exits shadow 00:18:24 10° 32° (NNE) 2,580 5.6 -46.5°
Drops below altitude 10° 00:18:35 10° 33° (NNE) 2,631 5.7 -46.5°
Sets 00:21:30 0° 46° (NE) 3,545 6.4 -46.5°
